{"data":{"norad_id":51743,"epoch":"2026-09-19T08:59:33.652320Z","epoch_age_seconds":149407,"freshness":"FRESH","line1":"1 51743U 22016AF  26262.37469505  .00001948  00000+0  68786-4 0  9998","line2":"2 51743  53.1595 145.3385 0001211  98.7456 261.3684 15.34392716253138","mean_motion":15.34392716,"eccentricity":0.0001211,"inclination_deg":53.1595,"raan_deg":145.3385,"arg_perigee_deg":98.7456,"mean_anomaly_deg":261.3684,"bstar":6.8786e-5,"rev_number":25313,"period_min":93.848203591185,"perigee_km":461.89646150092,"apogee_km":463.55331825065,"semimajor_km":6840.8618898758,"source":"CELESTRAK","updated_at":"2026-09-20T09:00:39.931808Z"}}